Home > Time Zones > World Clock > Weather > U.S.A. > Hilo > Past weeks

Flag Weather past 2 weeks in Hilo, Hawaii, U.S.A.

Now
82 °F

Broken clouds.


Feels Like: 86 °F
Forecast: 66 / 80 °F
Wind: 15 mph from Northeast

Location: Hilo International Airport

Current Time: Oct 30, 2014 at 2:04:34 PM

Latest Report: Oct 30, 2014 at 12:53 PM


Visibility: 10 mi

Pressure: 30.03 "Hg

Humidity: 67%

Dew point: 70 °F

Location of HiloLocation

Historic Weather in Hilo — Graph

°F

Hilo temperature yesterday

Maximum temperature yesterday: 81 °F (at 3:53 PM)
Minimum temperature yesterday: 72 °F (at 12:20 AM)
Average temperature yesterday: 75 °F

Past Weeks' High & Low Weather Summary

 TemperatureHumidityPressure
High87 °F (Oct 21, 11:53 AM)100% (Oct 17, 3:45 AM)30.11 "Hg (Oct 17, 3:45 AM)
Low68 °F (Oct 25, 5:53 AM)53% (Oct 24, 11:53 AM)29.88 "Hg (Oct 16, 2:53 PM)
Average76 °F84%30.01 "Hg
* Reported Oct 15 12:53 PM — Oct 30 12:53 PM, Hilo, Weather by CustomWeather, © 2014

Note: Actual official high and low records may vary slightly from our data, if they occured in-between our weather recording intervals... More about our weather records

Advertising

Hilo weather history for previous 24 hours

 ConditionsComfort  
Time TempWeatherWind HumidityBarometerVisibility
12:53 PM
Oct 30
82 °FBroken clouds.15 mph67%30.03 "Hg10 mi
11:53 AM84 °FPassing clouds.10 mph61%30.06 "Hg10 mi
10:53 AM84 °FBroken clouds.12 mph63%30.08 "Hg10 mi
9:53 AM83 °FScattered clouds.10 mph65%30.09 "Hg10 mi
9:27 AM82 °FPartly sunny.9 mph66%30.09 "Hg10 mi
8:53 AM79 °FPartly sunny.8 mph77%30.09 "Hg10 mi
8:33 AM75 °FPartly sunny.3 mph78%30.09 "Hg10 mi
7:53 AM71 °FBroken clouds.5 mph87%30.08 "Hg10 mi
6:53 AM71 °FScattered clouds.7 mph87%30.06 "Hg10 mi
5:53 AM71 °FPartly cloudy.6 mph90%30.05 "Hg10 mi
4:53 AM72 °FPartly cloudy.No wind87%30.04 "Hg10 mi
3:53 AM72 °FPassing clouds.6 mph91%30.03 "Hg10 mi
3:14 AM73 °FOvercast.5 mph89%30.05 "Hg10 mi
2:53 AM72 °FLight rain. Fog.3 mph91%30.05 "Hg6 mi
1:53 AM73 °FLight rain. Mostly cloudy.3 mph84%30.06 "Hg8 mi
12:53 AM73 °FLight rain. Mostly cloudy.8 mph84%30.07 "Hg10 mi
11:53 PM
Oct 29
73 °FPartly cloudy.7 mph84%30.09 "Hg10 mi
10:53 PM73 °FMostly cloudy.No wind81%30.10 "Hg10 mi
9:53 PM72 °FPassing clouds.3 mph84%30.11 "Hg10 mi
8:53 PM75 °FOvercast.5 mph79%30.11 "Hg10 mi
7:53 PM77 °FMostly cloudy.10 mph77%30.10 "Hg10 mi
6:53 PM79 °FMostly cloudy.6 mph69%30.07 "Hg10 mi
5:53 PM79 °FOvercast.5 mph69%30.05 "Hg10 mi
4:53 PM80 °FPartly sunny.7 mph67%30.04 "Hg10 mi
3:53 PM81 °FOvercast.8 mph69%30.03 "Hg10 mi
2:53 PM80 °FLight rain. Broken clouds.7 mph76%30.02 "Hg10 mi
Weather by CustomWeather, © 2014

See weather overviewHow to use our weather pages